Tracking 19146 objects as of 23-Apr-2018
HD Live streaming from Space Station
objects crossing your sky now

SL-16 DEB

Track SL-16 DEB now!
10-day predictions


NORAD ID: 23090
Int'l Code: 1994-023D
Perigee: 847.1 km
Apogee: 1,130.7 km
Inclination: 71.0 °
Period: 104.7 minutes
Semi major axis: 7359 km
RCS: 0.0868 m2 (small)
Launch date: April 23, 1994
Source: Commonwealth of Independent States (former USSR) (CIS)
Launch site: TYURATAM MISSILE AND SPACE COMPLEX (TTMTR)

Note: This is SATELLITE DEBRIS
aabbcc
Your satellite tracking list
Your tracking list is empty




NASA's NSSDC Master Catalog

Two Line Element Set (TLE):
1 23090U 94023D   18113.20055838  .00000002  00000-0  40862-4 0  9993
2 23090  71.0305 120.1233 0192644 175.5221 184.7664 13.74984948204260
Source of the keplerian elements: AFSPC